Location: Aldenham
(51.6667°N, 0.3500°W)
Time: 07:57:09
(UTC+00:00)

Explorer 7 - Pass Details

Date: 18 February 2026
Orbit: 430 x 541 km, 50.2° (Epoch: 12 March)

Event Time Altitude Azimuth Distance (km) Brightness Sun altitude
Rises 16:27:49 0° 247° (WSW) 2,448 12.7 6.8°
Reaches altitude 10° 16:29:56 10° 243° (WSW) 1,594 12.7 6.5°
Maximum altitude 16:33:27 56° 165° (SSE) 565 7.1 6.1°
Drops below altitude 10° 16:37:08 10° 87° (E) 1,663 8.7 5.5°
Sets 16:39:23 0° 83° (E) 2,567 9.6 5.2°
